{"data":{"norad_id":59640,"intl_designator":"2024-082K","name":"STARLINK-31806","alt_names":[],"object_type":"PAYLOAD","status":"ACTIVE","operator":null,"country":"US","launch_date":"2024-05-03","launch_site_code":"AFETR","launch_vehicle":null,"mission":null,"orbit_class":"UNKNOWN","rcs_meters":null,"size_class":null,"mass_kg":null,"dimensions":null,"purposes":["comms"],"wikipedia_slug":null,"has_3d_model":false,"image_url":null,"decayed_at":null,"tle_current":{"epoch":"2026-05-25T03:24:06.880320Z","epoch_age_seconds":62842,"freshness":"FRESH","line1":"1 59640U 24082K   26145.14174630  .00000664  00000+0  33651-4 0  9991","line2":"2 59640  43.0007  68.1040 0000758 247.9251 112.1520 15.27575368116503","mean_motion":15.27575368,"eccentricity":7.58e-5,"inclination_deg":43.0007,"raan_deg":68.104,"arg_perigee_deg":247.9251,"mean_anomaly_deg":112.152,"bstar":3.3651e-5,"rev_number":11650,"period_min":94.267034554592,"perigee_km":482.54288699164,"apogee_km":483.58304490647,"semimajor_km":6861.1999659491,"source":"CELESTRAK","updated_at":"2026-05-25T13:38:19.014646Z"}}}